Location: Worth Mountain WMA
(34.9569°N, 81.4819°W)
Time: 00:54:24
(UTC-04:00)

Cosmos 1441 Rocket - Pass Details

Date: 18 August 2017
Orbit: 498 x 543 km, 81.1° (Epoch: 23 September)

Event Time Altitude Azimuth Distance (km) Brightness Sun altitude
Rises 20:30:21 0° 358° (N) 2,593 7.1 -4.7°
Reaches altitude 10° 20:32:32 10° 5° (N) 1,705 6.0 -5.2°
Maximum altitude 20:36:08 46° 79° (E) 681 3.4 -5.9°
Drops below altitude 10° 20:39:43 10° 154° (SSE) 1,698 5.4 -6.5°
Sets 20:41:53 0° 160° (SSE) 2,582 6.4 -7.0°
